Weather History for KGIF - October, 2011

Change the Weather History Date:

Friday, October 14, 2011

  Actual Average Record
Temperature  
Mean Temperature 77 °F -  
Max Temperature 84 °F 86 °F 94 °F (1986)
Min Temperature 70 °F 65 °F 45 °F (1977)
Cooling Degree Days 12    
Growing Degree Days 27 (Base 50)    
Moisture  
Dew Point 64 °F    
Average Humidity 71    
Maximum Humidity 96    
Minimum Humidity 38    
Precipitation  
Precipitation 0.00 in - - ()
Sea Level Pressure  
Sea Level Pressure 29.90 in    
Wind  
Wind Speed 4 mph (NW)    
Max Wind Speed 10 mph    
Max Gust Speed -    
Visibility 10 miles    
Events      
Averages and records for this station are not official NWS values.
T = Trace of Precipitation, MM = Missing Value Source: NWS Daily Summary

Daily Weather History Graph

Daily Weather History Graph

Search for Another Location

Airport or City:

Trip Planner

Search our weather history database for the weather conditions in past years. The results will help you decide how hot, cold, wet, or windy it might be!

Date:

Astronomy

Oct. 14, 2011 Rise Set
Actual Time 7:26 AM EDT 6:58 PM EDT
Civil Twilight 7:03 AM EDT 7:22 PM EDT
Nautical Twilight 6:35 AM EDT 7:49 PM EDT
Astronomical Twilight 6:08 AM EDT 8:17 PM EDT
Moon 8:29 PM EDT (10/14) 9:37 AM EDT (10/14)
Length of Visible Light 12h 19m
Length of Day
11h 32m
Waning Gibbous, 94% of the Moon is Illuminated
Oct 14
Waning Gibbous
Oct 19
Last Quarter
Oct 26
New
Nov 2
First Quarter
Nov 10
Full

Hourly Weather History & Observations

Time (EDT) Temp. Heat Index Dew Point Humidity Pressure Visibility Wind Dir Wind Speed Gust Speed Precip Events Conditions
12:53 AM 73.9 °F - 71.1 °F 91% 29.83 in 10.0 mi WSW 4.6 mph - N/A   Clear
1:53 AM 73.0 °F - 71.1 °F 93% 29.83 in 10.0 mi West 4.6 mph - N/A   Clear
2:53 AM 73.0 °F - 71.1 °F 93% 29.83 in 10.0 mi West 3.5 mph - N/A   Clear
3:53 AM 71.1 °F - 70.0 °F 96% 29.83 in 9.0 mi West 4.6 mph - N/A   Clear
4:53 AM 71.1 °F - 70.0 °F 96% 29.83 in 4.0 mi West 3.5 mph - N/A   Clear
5:53 AM 71.1 °F - 69.1 °F 93% 29.83 in 10.0 mi WNW 5.8 mph - N/A   Clear
6:53 AM 71.1 °F - 69.1 °F 93% 29.85 in 10.0 mi Calm Calm - N/A   Clear
7:53 AM 70.0 °F - 68.0 °F 93% 29.87 in 9.0 mi WNW 3.5 mph - N/A   Clear
9:53 AM 75.9 °F - 64.9 °F 69% 29.92 in 10.0 mi NNE 10.4 mph - N/A   Clear
10:53 AM 79.0 °F - 61.0 °F 54% 29.94 in 10.0 mi Variable 6.9 mph - N/A   Clear
12:53 PM 82.9 °F 83.2 °F 60.1 °F 46% 29.93 in 10.0 mi Variable 4.6 mph - N/A   Clear
1:53 PM 84.0 °F 83.8 °F 59.0 °F 43% 29.91 in 10.0 mi North 8.1 mph - N/A   Clear
3:53 PM 84.9 °F 84.2 °F 57.9 °F 40% 29.90 in 10.0 mi North 6.9 mph - N/A   Clear
4:53 PM 84.9 °F 83.9 °F 57.0 °F 38% 29.90 in 10.0 mi NNE 5.8 mph - N/A   Clear
5:53 PM 82.9 °F 82.4 °F 57.0 °F 41% 29.90 in 10.0 mi Calm Calm - N/A   Clear
6:53 PM 80.1 °F 80.7 °F 59.0 °F 48% 29.91 in 10.0 mi North 3.5 mph - N/A   Clear
7:53 PM 75.0 °F - 62.1 °F 64% 29.93 in 10.0 mi Calm Calm - N/A   Clear
8:53 PM 73.9 °F - 63.0 °F 68% 29.96 in 10.0 mi Calm Calm - N/A   Clear
9:53 PM 73.0 °F - 64.0 °F 73% 29.98 in 10.0 mi Calm Calm - N/A   Clear
10:53 PM 71.1 °F - 63.0 °F 75% 30.00 in 10.0 mi North 3.5 mph - N/A   Clear
11:53 PM 70.0 °F - 64.0 °F 81% 30.02 in 10.0 mi North 3.5 mph - N/A   Clear